Find Starlink 32799

NORAD ID: 62847 Int'l Des: 2025-019 Owner: SPXS Country: US Constellation: starlink operational
LEOCIRCULAR

实时位置

正在加载3D地球...

关于 Starlink 32799

正在加载描述...

即将过境

Passes for default location (London). Set your location on the main map for personalized predictions.

高度历史

Loading altitude history...

两行轨道根数

1 62847U 25019U 26121.46150657 .00024802 00000-0 90666-3 0 9996
2 62847 43.0030 150.7881 0001918 275.2242 84.8391 15.27620476 70327
Epoch: May 1, 2026 • Age: 8 hours

当前状态

高度 487.3 km
速度 7.63 km/s
星下点 42.84°N, 97.6°E
发射日期 Jan 27, 2025
运行时间 1.2 years
类型 internet

技术详情

分类 Payload
质量 730.00 kg
干质量 700.00 kg
总质量 730.00 kg
长度 0.30 m
直径 4.10 m
跨度 29.00 m
形状 Box + pan
制造商 SPXS
平台类型 Starlink V2M
阶段状态 In Orbit
所有者/国家 SPXS/US

Most Searched